Temp
14 15 14 14 14 15 15 15 15 17 19 19 20 22 22 24 24 25 24 21 19 18 17 17 17 17 17 17 16 15 15 15 14 14 13 13 12 12 11 10 9 9 8 7
12 14 14 13 14 14 14 16 17 19 20 23 23 24 24 25 25 25 22 21 21 20 19 18 17 16 16 16 15 15 14 13 13 13 12 12 11 10 9 8 7 7 6 5
10 13 11 10 13 15 15 17 17 16 18 20 20 23 24 24 24 23 22 22 21 19 18 17 16 15 15 14 14 13 12 12 12 11 10 9 9 8 7 6 5 4 5 5
9 9 6 12 15 15 14 15 16 15 16 17 17 20 24 21 21 20 20 21 19 17 16 16 15 14 14 13 12 11 11 10 10 9 8 7 7 6 5 4 4 5 5 4
8 8 10 12 13 13 14 13 15 15 14 14 14 16 21 22 19 18 17 15 14 14 14 14 13 12 12 11 10 10 9 8 8 7 6 6 5 5 5 4 4 4 4 4
5 3 8 12 14 16 15 12 16 14 14 14 12 12 13 13 17 16 15 14 14 13 12 11 10 10 9 9 8 8 6 6 6 5 5 5 4 3 3 3 2 3 2 2
9 8 8 12 13 14 11 12 14 14 13 12 11 11 12 15 16 14 13 12 11 11 10 9 9 9 8 7 6 6 5 5 4 4 3 3 2 2 1 1 1 0 0 -0
7 8 7 14 14 12 13 12 11 12 12 11 11 11 12 14 15 13 12 10 9 8 7 7 7 6 6 5 5 5 4 4 3 3 2 1 1 0 0 -0 -0 -1 -0 -1
9 9 11 12 12 12 12 12 12 12 11 11 9 9 11 12 12 10 9 8 7 6 5 4 5 5 5 5 4 4 3 2 1 2 1 1 0 0 0 0 -1 -1 -1 -1
9 10 11 12 12 12 12 11 12 12 12 11 8 9 9 12 11 8 7 6 5 4 3 3 3 3 4 4 4 3 2 1 0 -0 -0 -1 -1 -1 -0 -0 -1 -1 -1 -1
8 10 10 11 11 11 11 11 11 11 11 10 9 9 9 10 8 7 6 4 4 3 3 3 3 3 3 3 3 2 1 0 0 -0 -0 -0 -1 -1 -1 -0 -0 -0 -0 -0
7 9 9 10 10 11 10 11 10 9 9 9 8 9 9 7 6 4 4 3 2 2 1 1 2 1 2 2 2 1 0 -1 -1 -1 -1 -1 -1 -1 -0 -1 -1 -1 -1 -1
8 10 9 9 10 10 10 10 10 8 9 8 7 7 6 4 4 3 3 2 1 1 1 -0 -1 -0 1 1 0 -1 -2 -2 -1 -1 -2 -3 -3 -3 -3 -3 -2 -2 -2 -3
10 10 9 10 10 10 10 9 9 8 8 8 3 4 3 3 2 2 2 2 1 -0 -1 -1 -2 -2 -0 -0 -1 -2 -2 -2 -3 -4 -4 -4 -4 -4 -4 -4 -5 -4 -4 -6
9 10 9 10 10 10 9 8 8 7 8 5 3 2 2 1 1 0 -1 -2 -2 -3 -3 -3 -4 -3 -1 -1 -2 -3 -3 -4 -4 -5 -5 -5 -6 -5 -5 -6 -6 -6 -6 -7
9 9 10 9 9 9 8 8 7 5 3 2 2 1 1 -0 -1 -2 -3 -3 -4 -4 -5 -5 -4 -3 -2 -3 -3 -4 -4 -5 -5 -6 -6 -7 -7 -7 -7 -7 -7 -7 -7 -8
8 8 8 8 8 7 7 7 6 2 1 1 -0 -1 -2 -3 -4 -4 -4 -5 -5 -5 -5 -5 -5 -4 -4 -4 -5 -5 -6 -6 -7 -7 -7 -8 -8 -8 -8 -8 -8 -8 -8 -9
7 4 4 5 6 4 2 1 1 0 -0 -1 -2 -3 -3 -3 -4 -5 -5 -5 -5 -5 -4 -5 -5 -5 -5 -5 -6 -6 -7 -7 -8 -8 -8 -9 -9 -9 -9 -9 -9 -10 -10 -10
2 1 1 2 1 1 0 -0 -1 -1 -2 -2 -3 -4 -4 -5 -5 -5 -5 -6 -6 -5 -5 -5 -5 -6 -6 -7 -7 -8 -8 -8 -9 -9 -9 -10 -10 -10 -11 -11 -11 -11 -11 -11
0 -0 -0 -0 -0 -1 -1 -2 -2 -3 -3 -4 -4 -5 -5 -6 -6 -6 -6 -7 -7 -7 -6 -6 -7 -7 -7 -8 -8 -9 -9 -10 -10 -10 -10 -11 -11 -11 -12 -12 -12 -12 -13 -13
-1 -1 -2 -2 -2 -2 -3 -3 -4 -4 -5 -4 -5 -5 -6 -6 -6 -6 -7 -7 -8 -8 -7 -8 -8 -8 -8 -9 -9 -10 -10 -10 -11 -11 -11 -12 -12 -12 -13 -13 -13 -14 -15 -15
-1 -1 -2 -2 -2 -3 -4 -4 -5 -5 -5 -6 -6 -6 -6 -6 -7 -7 -8 -9 -9 -9 -9 -9 -9 -9 -9 -10 -10 -10 -10 -11 -11 -11 -12 -12 -13 -13 -14 -14 -14 -15 -16 -16
-2 -2 -3 -3 -4 -4 -5 -5 -5 -5 -5 -5 -5 -5 -6 -6 -7 -8 -9 -9 -10 -9 -9 -9 -9 -10 -10 -10 -11 -11 -11 -11 -12 -12 -13 -13 -14 -14 -15 -15 -16 -16 -17 -17
-3 -3 -3 -3 -3 -4 -4 -4 -5 -5 -5 -6 -6 -6 -8 -9 -10 -10 -10 -10 -10 -10 -10 -10 -10 -10 -11 -11 -11 -12 -12 -12 -12 -13 -13 -14 -15 -15 -16 -16 -16 -17 -17 -17
-2 -2 -2 -3 -3 -4 -4 -4 -4 -4 -5 -6 -6 -7 -8 -9 -9 -10 -10 -10 -10 -10 -11 -11 -11 -11 -11 -12 -12 -12 -13 -13 -13 -14 -14 -15 -15 -16 -16 -16 -17 -17 -17 -17
-1 -2 -2 -3 -3 -3 -3 -3 -4 -6 -7 -7 -8 -9 -9 -9 -9 -10 -10 -10 -11 -11 -11 -11 -11 -11 -12 -12 -13 -13 -13 -14 -14 -15 -15 -15 -16 -16 -16 -17 -17 -17 -17 -17
-1 -2 -2 -2 -2 -3 -4 -4 -5 -6 -7 -8 -9 -9 -9 -9 -9 -10 -10 -11 -11 -11 -11 -12 -12 -12 -12 -13 -13 -14 -14 -15 -15 -16 -15 -16 -16 -17 -17 -17 -17 -17 -17 -17
Height
786 784 789 788 779 769 778 775 780 753 755 724 713 711 705 688 691 693 684 683 705 715 718 717 718 726 731 732 735 737 737 738 739 740 740 741 741 743 745 740 739 740 738 736
788 789 786 783 773 775 773 767 758 745 732 702 700 696 694 689 681 679 686 686 686 695 702 708 716 723 732 734 737 737 737 738 740 741 743 744 744 745 744 742 741 740 739 739
799 792 796 794 774 767 761 755 755 752 724 719 712 703 695 690 684 684 687 680 680 692 700 710 718 725 733 736 738 737 738 741 744 745 746 746 747 745 745 744 744 743 742 741
808 809 832 772 766 763 766 754 750 745 733 728 722 701 685 684 684 690 690 696 693 692 700 709 719 726 732 736 738 740 742 746 748 748 748 750 749 749 746 747 748 747 744 745
810 803 782 772 767 769 765 747 750 741 738 734 727 707 682 681 675 679 697 699 707 713 715 713 718 727 732 737 741 744 747 750 752 751 753 754 753 750 750 752 751 750 748 748
818 834 795 760 757 753 754 741 739 740 736 736 738 734 712 708 685 676 686 702 712 722 721 724 722 729 734 741 746 748 751 753 754 756 756 757 755 754 753 754 754 752 752 750
788 795 785 753 754 757 769 747 739 741 741 743 745 745 724 674 684 677 686 690 698 713 727 731 731 733 743 745 751 754 754 756 759 756 759 760 759 757 757 757 756 756 755 753
790 786 785 746 747 757 745 743 744 741 741 740 737 732 719 706 681 690 697 703 709 712 720 733 738 747 748 750 755 756 759 758 758 760 762 763 762 761 760 760 759 758 756 754
767 761 747 739 747 748 742 738 734 732 731 732 732 728 717 712 683 685 703 713 717 719 730 741 745 751 750 756 760 759 759 762 763 763 765 765 765 763 762 762 762 761 758 754
757 746 743 737 740 743 738 736 732 730 726 727 729 723 713 719 695 699 710 718 725 730 732 747 751 753 755 759 762 762 765 765 765 764 766 767 766 766 765 764 763 762 758 754
752 744 737 735 734 735 732 731 729 727 726 724 724 708 716 709 695 707 715 717 725 734 743 752 759 759 762 764 765 765 766 765 766 767 768 768 769 768 768 767 765 761 758 754
742 732 734 730 725 727 726 725 725 724 721 717 710 697 706 706 707 709 717 726 729 743 750 758 762 765 767 768 765 764 767 768 768 769 769 769 769 768 768 767 764 762 758 754
725 720 720 719 717 716 718 719 719 721 720 715 713 711 704 704 718 721 726 730 741 746 755 761 765 767 768 768 765 767 770 771 771 771 771 772 772 771 769 766 764 761 758 754
711 711 710 706 705 706 708 710 712 712 712 716 721 721 705 711 725 731 736 740 746 754 761 765 768 769 771 770 769 772 773 774 774 775 776 776 776 774 771 768 765 762 759 756
695 693 694 693 694 696 699 704 708 707 695 704 715 725 717 719 727 738 745 748 754 758 765 770 773 774 773 774 774 776 777 778 779 781 781 780 778 775 774 772 769 766 763 758
681 681 681 681 682 685 691 698 701 709 714 712 718 722 721 727 738 746 752 756 758 763 771 775 776 778 778 779 780 780 782 784 784 784 783 782 780 779 778 775 772 769 765 762
669 671 672 672 676 679 682 682 687 701 714 720 720 719 731 738 743 752 761 765 768 771 776 778 781 783 783 785 785 786 787 788 788 787 786 786 785 783 782 779 777 773 770 767
661 668 666 662 665 676 679 683 692 703 713 727 722 728 737 744 752 761 768 772 775 778 783 785 786 787 790 790 790 790 790 792 792 792 792 790 789 788 786 783 780 776 773 769
665 670 661 652 666 679 685 692 702 712 722 728 730 740 748 755 762 770 774 778 781 784 789 791 792 793 794 795 793 794 794 795 796 797 797 796 793 791 789 787 784 781 777 772
680 680 677 679 687 692 698 706 712 723 733 735 742 750 757 765 770 775 780 785 789 791 794 796 797 798 797 799 799 799 800 801 800 801 800 798 797 795 794 792 788 785 780 776
695 696 696 699 706 710 717 727 732 738 745 748 752 759 765 773 777 781 784 787 795 797 799 800 800 801 803 803 804 805 805 805 805 805 804 802 802 801 798 795 792 788 784 779
710 711 713 716 722 729 735 739 743 749 754 760 765 769 774 779 782 786 790 793 799 801 803 805 804 805 807 808 809 809 810 809 810 809 808 807 806 804 801 798 795 791 787 783
724 726 728 730 735 742 748 752 754 757 762 768 773 776 779 785 790 791 795 803 804 806 806 807 809 811 812 815 814 813 814 815 814 813 813 811 809 807 805 802 798 795 790 785
735 738 740 744 746 749 754 763 766 768 769 774 778 782 786 791 795 798 801 806 808 808 809 812 814 815 818 817 817 818 819 818 818 817 816 814 812 810 807 804 801 797 793 788
745 747 751 754 757 762 765 770 772 777 781 784 789 792 796 798 796 803 807 809 812 813 815 818 819 820 820 821 821 822 822 822 821 819 818 817 815 812 810 807 804 800 796 791
750 754 758 761 764 767 772 775 775 782 788 793 798 799 800 801 804 807 810 813 817 819 820 821 822 824 824 825 824 825 826 825 823 822 821 819 818 815 813 810 807 803 799 794
757 758 764 767 772 773 777 780 783 789 795 797 799 803 803 805 808 811 814 818 821 822 822 825 827 828 827 827 828 829 828 827 826 825 823 821 820 818 816 813 810 806 802 798
Wind_Speed
14 11 9 17 23 25 14 13 7 17 19 31 28 21 20 23 6 7 10 23 16 9 9 16 20 21 22 22 21 23 24 24 22 22 21 20 20 19 19 21 20 19 21 22
16 8 12 21 19 16 17 19 18 20 21 21 24 19 21 20 16 9 12 17 21 20 19 15 21 22 22 21 22 24 26 25 23 22 21 20 21 20 18 19 20 20 23 23
10 5 12 13 11 11 18 17 9 12 23 21 25 23 15 15 4 2 2 18 21 18 15 18 22 25 23 24 24 27 26 24 22 21 22 20 19 20 19 21 19 20 19 20
9 4 8 12 10 12 21 22 14 20 23 22 24 28 21 3 7 9 8 1 10 17 22 26 30 29 28 26 26 26 25 22 21 21 22 20 21 21 22 21 18 17 18 17
6 13 16 22 18 18 19 21 14 10 16 19 25 25 16 9 4 16 14 16 18 19 22 29 29 27 28 25 24 23 22 22 22 19 21 20 21 21 18 15 16 16 17 17
4 3 17 23 17 14 14 22 8 15 21 21 20 16 14 28 3 19 22 24 22 21 26 26 29 31 28 22 22 22 21 20 21 18 18 19 18 19 17 17 17 16 17 17
10 9 8 16 18 18 19 15 18 18 19 18 14 13 21 29 13 21 25 33 39 29 23 23 28 30 23 22 20 20 21 20 18 19 19 17 17 18 19 17 15 16 17 18
4 7 16 9 13 12 13 18 17 18 13 19 18 22 24 19 20 20 21 27 31 32 30 26 26 22 21 21 20 18 17 19 18 19 17 16 16 17 18 17 17 17 16 17
10 9 8 17 13 10 19 21 19 16 15 16 18 23 21 12 19 23 20 24 28 32 31 25 25 20 21 19 17 20 24 22 21 19 16 16 17 17 17 16 17 17 17 17
14 14 15 17 14 13 15 14 18 17 18 15 22 21 15 12 18 18 22 25 27 28 30 22 21 23 21 17 17 19 20 21 20 23 20 18 18 18 19 17 17 18 17 18
17 18 19 18 19 16 18 12 18 13 17 18 19 22 25 11 20 19 24 30 31 27 25 23 20 21 19 19 18 19 20 22 20 17 16 15 15 16 15 15 18 19 21 22
16 19 15 17 20 18 19 16 11 8 16 19 20 18 13 14 19 25 26 29 32 28 26 22 21 20 19 20 20 20 20 19 22 20 20 19 20 19 16 17 18 20 20 25
22 23 19 19 16 16 13 12 7 9 12 11 14 6 17 19 24 29 29 32 28 28 26 22 21 22 24 22 25 27 23 22 22 23 24 24 24 22 19 24 22 23 25 22
20 20 22 22 15 11 8 7 7 14 20 9 13 8 26 26 29 27 26 30 30 28 25 23 21 23 23 23 26 26 25 23 26 26 24 23 22 21 20 19 19 22 24 28
26 20 17 17 18 18 10 5 8 8 6 18 26 15 25 20 22 25 28 29 30 29 25 22 21 22 25 23 26 24 25 25 23 22 22 22 21 21 21 21 21 21 23 28
21 21 20 13 12 12 10 9 14 6 5 15 16 25 29 30 31 28 26 26 28 25 23 23 24 22 25 23 24 25 26 22 22 21 20 22 22 21 21 21 21 21 23 25
13 12 12 16 16 14 16 19 10 16 14 14 22 33 34 32 33 31 29 28 27 25 24 28 25 24 25 23 24 24 22 22 22 21 21 21 21 21 21 21 21 21 22 25
11 9 10 18 15 6 16 19 20 20 19 23 31 32 29 28 24 28 28 27 28 29 28 25 27 27 24 23 23 24 23 21 22 22 21 22 21 20 21 21 21 22 24 25
13 9 16 22 20 19 19 20 25 32 29 30 32 28 31 32 31 27 25 25 25 24 24 24 23 24 25 22 23 24 24 22 21 22 20 20 21 22 22 23 22 23 24 25
16 16 23 22 29 27 21 30 32 29 29 35 35 31 28 27 28 28 27 25 22 23 24 22 25 25 24 22 23 25 25 22 21 20 23 22 24 22 22 22 22 23 24 24
17 19 22 20 21 30 30 28 31 27 27 30 31 28 29 29 27 26 24 23 21 23 23 23 23 23 21 22 23 24 23 23 23 23 24 25 24 21 21 21 21 22 24 24
15 17 19 27 25 26 28 30 32 31 31 30 28 27 27 28 29 29 25 25 22 22 24 24 23 22 22 22 22 23 23 23 23 23 24 23 21 20 20 22 22 23 24 25
20 23 24 25 25 27 28 27 29 30 29 26 24 25 24 22 20 22 20 20 24 24 25 23 21 21 22 22 22 22 22 22 22 22 21 21 21 21 21 24 24 23 27 27
21 23 25 26 28 29 22 23 24 25 29 30 30 29 27 25 26 26 27 24 25 25 25 21 20 21 20 20 22 22 20 20 20 20 20 21 22 22 23 23 25 25 27 29
22 23 23 22 22 20 25 24 26 25 26 26 25 24 22 20 27 27 27 25 24 25 23 20 20 20 21 20 18 18 19 19 17 18 20 22 22 22 23 24 24 25 27 29
17 17 18 20 21 21 21 20 20 22 22 21 21 25 28 28 28 27 24 22 21 21 22 20 19 18 18 18 18 19 17 16 17 17 16 18 20 22 22 23 24 26 27 28
21 22 21 19 18 19 19 20 20 20 20 21 23 25 27 27 25 24 23 22 20 20 20 19 17 16 15 15 14 13 14 14 14 16 17 17 16 18 19 21 23 24 26 27
Wind_Direction
261 276 323 303 291 295 281 275 283 272 254 264 267 274 278 289 290 316 210 134 119 74 105 110 106 107 107 109 108 103 92 82 78 76 67 60 57 51 46 47 41 31 25 25
281 304 284 276 287 297 290 282 261 268 273 273 271 271 274 273 300 304 167 147 146 150 144 130 124 120 113 106 103 97 87 77 71 70 64 63 59 54 50 41 32 31 42 41
280 337 325 296 283 277 272 277 318 295 288 310 302 295 281 284 279 302 279 169 148 141 125 116 119 122 110 102 96 86 79 72 67 69 64 63 58 53 41 34 37 43 39 36
271 312 251 262 280 300 311 294 294 313 308 322 319 310 290 211 61 334 1 10 110 120 116 116 110 106 102 95 87 81 75 68 64 67 65 62 58 52 44 48 44 41 39 30
236 249 278 288 283 285 294 287 299 293 350 347 343 327 300 280 147 99 79 109 101 85 89 99 99 98 94 85 82 79 73 65 61 66 63 58 56 51 48 43 37 28 20 13
267 232 266 273 278 268 311 289 214 348 342 344 353 336 308 313 210 112 115 105 92 99 97 87 90 93 85 79 76 73 73 71 67 64 64 53 48 43 36 32 27 21 17 19
234 256 264 261 269 274 264 276 324 340 341 341 333 322 298 290 166 125 127 124 117 96 80 84 86 92 84 82 77 81 76 71 65 60 56 45 41 38 32 25 20 13 6 7
243 251 267 268 265 251 287 322 323 323 324 330 327 327 308 300 115 104 108 105 101 92 93 88 84 86 81 76 81 82 86 75 64 58 49 45 40 36 34 27 19 11 4 4
225 244 264 289 298 290 298 298 309 318 327 329 323 322 308 272 114 113 108 95 95 94 85 76 82 82 80 84 87 82 77 72 64 60 53 45 39 32 26 19 14 4 356 351
275 271 279 286 295 290 285 291 296 317 320 332 323 325 315 271 111 100 100 98 95 93 90 84 78 76 77 90 89 86 77 70 63 53 46 39 33 25 18 16 11 356 345 338
271 270 272 274 270 274 281 299 307 305 311 316 315 306 299 191 114 112 111 107 96 88 93 88 84 76 72 75 90 86 78 68 59 46 36 28 21 12 3 1 354 342 347 347
248 250 250 261 272 275 273 283 290 318 324 322 316 280 162 120 111 110 107 105 102 103 96 92 82 74 72 69 68 73 67 54 47 38 32 24 13 10 15 7 6 4 359 2
251 255 255 256 258 266 270 289 296 312 312 306 17 95 118 100 97 102 103 102 102 101 97 88 77 65 65 65 72 68 62 50 43 34 36 34 28 19 9 12 17 17 12 21
256 265 268 264 255 267 265 285 298 304 279 217 125 147 103 104 98 94 98 102 99 96 88 80 70 61 60 69 72 63 59 50 57 47 40 34 28 20 16 12 10 10 14 12
255 246 246 259 264 260 260 265 283 332 244 140 135 136 111 105 100 100 97 95 91 84 77 73 65 62 65 70 69 64 59 61 53 49 42 35 27 24 23 18 14 11 10 9
255 251 249 247 258 262 246 234 260 165 125 124 123 115 102 98 98 94 91 91 91 85 81 74 71 67 72 71 71 67 64 61 56 48 39 32 28 26 22 17 13 10 11 7
259 253 256 261 251 245 262 268 216 128 124 120 112 105 103 99 93 89 87 88 88 88 86 74 74 75 77 74 73 70 65 57 52 47 40 33 30 27 23 16 12 10 7 4
289 342 285 253 238 125 104 109 112 114 111 117 104 101 99 98 100 98 98 96 89 83 85 78 76 80 76 75 72 67 64 59 51 44 40 35 31 28 24 17 15 13 4 3
80 59 59 74 104 106 101 99 98 101 106 106 99 97 99 100 102 104 100 89 84 85 82 83 80 79 76 71 71 67 64 59 53 46 42 36 34 33 25 20 16 15 8 6
73 74 77 81 87 94 94 93 96 99 105 105 105 103 99 99 102 99 94 83 79 80 95 86 85 77 74 71 71 68 66 61 55 49 45 40 37 33 26 23 20 16 10 7
71 76 78 80 80 83 89 99 102 97 98 101 104 106 106 107 105 105 99 92 84 88 93 88 83 79 76 75 74 70 67 61 57 51 48 44 40 34 26 23 21 17 11 8
76 79 81 83 82 81 86 94 98 101 101 100 99 103 104 100 98 91 92 97 99 97 90 85 82 80 80 77 76 74 67 64 60 55 50 45 39 33 29 24 21 17 13 10
79 84 87 87 89 91 89 91 96 101 103 105 108 106 103 104 103 102 96 96 101 99 93 87 85 85 82 80 75 72 70 64 61 55 51 46 42 38 32 28 25 17 16 14
87 87 91 96 98 96 92 93 95 95 97 101 105 111 109 103 94 105 110 110 105 97 93 93 90 87 87 83 78 74 67 66 62 57 51 47 44 41 36 31 27 25 22 21
102 102 101 101 100 102 107 109 102 98 97 96 97 102 108 109 111 114 108 105 102 98 96 94 92 90 83 78 78 75 72 63 60 60 56 46 43 40 37 33 31 27 25 23
102 99 102 106 111 115 117 114 103 103 102 102 101 108 111 112 114 114 110 110 109 105 103 97 94 91 89 86 78 70 68 66 60 58 57 54 43 37 35 33 32 30 28 25
106 110 113 113 117 117 118 118 117 120 125 122 117 121 121 119 116 113 115 116 114 109 103 99 96 92 90 85 81 78 73 67 64 59 55 52 47 40 36 35 35 32 30 28